Regional Weather Roundup
Issued by NWS

Home | Current Version | Previous Version | Graphics & Text | Print | Product List | Glossary Off
Versions: 1 2 3 4 5 6 7 8 9 10 11 12 13 14 15 16 17 18 19 20 21 22 23 24 25 26 27 28 29 30 31 32 33 34 35 36 37 38 39 40 41 42 43 44 45 46 47 48 49 50

000
ASUS43 KMKX 270521
RWRWI

WISCONSIN REGIONAL WEATHER ROUNDUP
NATIONAL WEATHER SERVICE MILWAUKEE/SULLIVAN WI
1100 PM CST FRI DEC 26 2014

NOTE: "FAIR" INDICATES FEW OR NO CLOUDS BELOW 12,000 FEET WITH NO
SIGNIFICANT WEATHER AND/OR OBSTRUCTIONS TO VISIBILITY.

WIZ001-002-006>008-014>016-023>028-270600-
NORTHWEST WISCONSIN

CITY           SKY/WX    TMP DP  RH WIND       PRES   REMARKS
SUPERIOR ARPT  CLOUDY    28  20  71 N7        30.12S WCI  21
ASHLAND        LGT SNOW  29  27  92 NW3       30.09S FOG
HAYWARD        LGT SNOW  28  25  88 N6        30.05F FOG     WCI  22
SIREN          LGT SNOW  28  26  95 N6        30.08F WCI  21
CUMBERLAND     LGT SNOW  28  27  93 N8        30.03S WCI  20
RICE LAKE      CLOUDY    29  27  90 N8        30.05S WCI  21
CHETEK         LGT SNOW  29  27  92 N5        30.04R WCI  24
LADYSMITH      LGT SNOW  30  28  92 N10       30.03F WCI  21
EAU CLAIRE     LGT SNOW  31  28  89 N6        30.01S VSB 1   WCI  25
MENOMONIE      LGT SNOW  31  29  92 N8        30.03F WCI  24
NEW RICHMOND   LGT SNOW  29  28  96 N7        30.06R WCI  22
OSCEOLA        LGT SNOW  28  28 100 N7        30.10S WCI  21
$$

WIZ003>005-009-010-017-018-270600-
NORTH CENTRAL WISCONSIN

CITY           SKY/WX    TMP DP  RH WIND       PRES   REMARKS
MANITOWISH WTR LGT SNOW  28  28 100 N5        30.01F WCI  23
ARBOR VITAE    CLOUDY    32  30  94 N3        30.01S
WOODRUFF       CLOUDY    32  30  94 N3        30.01S
RHINELANDER    LGT SNOW  29  27  92 NE5       30.00S FOG     WCI  24
EAGLE RIVER    LGT SNOW  29  29 100 CALM      30.01S
LAND O LAKES   LGT SNOW  30  30  99 NE3       30.02F
PHILLIPS       LGT SNOW  28  27  95 N8        30.00F WCI  20
TOMAHAWK       FLURRIES  30  28  94 CALM      30.01S
MEDFORD        LGT SNOW  30  29  96 NE7       29.98F WCI  23
MERRILL        LGT SNOW  31  31 100 NE5       30.00S WCI  27
$$

WIZ029-030-035-036-043>047-270600-
CENTRAL WISCONSIN

CITY           SKY/WX    TMP DP  RH WIND       PRES   REMARKS
WAUSAU         LGT SNOW  33  31  92 E3        29.98F FOG
MOSINEE        LGT SNOW  32  32 100 E3        30.00F
MARSHFIELD     CLOUDY    33  31  92 NE6       29.97F FOG     WCI  28
STEVENS POINT  MIX PCPN  31  31  99 NE6       30.00S WCI  25
WAUPACA        CLOUDY    34  33  96 CALM      30.01S FOG
WAUTOMA        FOG       34  34 100 NE5       30.00F VSB 3/4 WCI  30
WISC RAPIDS    CLOUDY    33  30  88 NE6       30.00F WCI  28
CAMP DOUGLAS   CLOUDY    33  33 100 NE3       29.97F
$$

WIZ011>013-019>022-031-037>040-048>050-270600-
NORTHEAST WISCONSIN

CITY           SKY/WX    TMP DP  RH WIND       PRES   REMARKS
ANTIGO         LGT SNOW  31  31 100 E5        29.99F WCI  26
SHAWANO        FOG       35  33  95 NE5       30.02F VSB 1/4 WCI  31
OCONTO         CLOUDY    33  33 100 N3        30.03F
STURGEON BAY   CLOUDY    36  34  93 E5        30.04F WCI  32
GREEN BAY      CLOUDY    35  33  92 NE8       30.02S FOG     WCI  29
MANITOWOC      CLOUDY    36  35  96 NW3       30.02S FOG
APPLETON       CLOUDY    32  32 100 NE6       30.01F FOG     WCI  26
CLINTONVILLE   FOG       32  32 100 NE6       30.01F VSB 1/4 WCI  26
OSHKOSH        CLOUDY    35  32  88 NE3       30.01S FOG
$$

WIZ032>034-041-042-053>061-270600-
SOUTHWEST WISCONSIN

CITY           SKY/WX    TMP DP  RH WIND       PRES   REMARKS
LA CROSSE      CLOUDY    34  32  92 NW8       29.98F FOG     WCI  27
SPARTA         MOCLDY    33  33  99 NE3       29.98F FOG
VIROQUA        MOCLDY    33  33 100 E6        29.94F WCI  27
BOSCOBEL       CLOUDY    32  29  88 NE3       29.97F
PRAIRIE DU CHI CLOUDY    32  31  94 CALM      29.98R
PLATTEVILLE    CLOUDY    37  34  91 E9        29.97F WCI  30
$$

WIZ056-057-062-063-064-067-068-270600-
SOUTH CENTRAL WISCONSIN

CITY           SKY/WX    TMP DP  RH WIND       PRES   REMARKS
REEDSBURG      MOCLDY    28  28 100 CALM      29.97S
BARABOO/DELLS  MOCLDY    32  31  98 CALM      29.98R FOG
LONE ROCK      CLOUDY    36  31  82 CALM      29.98S
MINERAL POINT  CLOUDY    36  34  93 E6        29.95F WCI  31
MADISON        CLOUDY    34  32  92 CALM      29.98F
MIDDLETON      CLOUDY    35  34  98 CALM      29.99R
WATERTOWN      PTCLDY    34  34 100 CALM      29.98F
MONROE         CLOUDY    41  36  81 SE5       29.97S
JANESVILLE     CLOUDY    41  37  87 CALM      29.99R
$$

WIZ051-052-058>065-066-070>072-270600-
SOUTHEAST WISCONSIN

CITY           SKY/WX    TMP DP  RH WIND       PRES   REMARKS
MILWAUKEE      MOCLDY    42  37  82 S5        30.01S
WAUKESHA       MOCLDY    37  36  93 S3        30.00S
MILWAUKEE/TIMM CLOUDY    41  36  81 S6        30.01S
RACINE         CLOUDY    42  37  82 S3        30.03S
BURLINGTON     CLOUDY    35  34  95 CALM      30.00S
KENOSHA        CLOUDY    44  39  82 S5        30.02S
FOND DU LAC    MOCLDY    34  31  88 CALM      30.01S FOG
SHEBOYGAN      CLOUDY    35  33  92 N3        30.01S
WEST BEND      CLOUDY    34  32  93 CALM      30.00S
JUNEAU         CLOUDY    35  33  92 E7        30.00F WCI  29
$$

LSZ147-162-270600-
LAKE SUPERIOR

STATION/POSITION TIME  TEMP    WIND        PRES    WAVE
                       AIR SEA DIR/SP/G            HT/PER
                 (UTC) (F)     (DEG/KT/KT) (MB)    (FT/S)
DEVILS ISLAND    0500   31      10/ 13/ 14 1020.2R
PORT WING        0400   31     360/ 12/ 14 1019.6
SAXON HARBOR     0400   33      CALM  /  3 1018.6F
$$

LMZ867-665-643>646-270600-
LAKE MICHIGAN

STATION/POSITION TIME  TEMP    WIND        PRES    WAVE
                       AIR SEA DIR/SP/G            HT/PER
                 (UTC) (F)     (DEG/KT/KT) (MB)    (FT/S)
CHAMBERS ISLAND  0400   35      20/  6/  7 1017.3S
NORTHPORT PIER   0500   35     350/  4/  6 1017.3S
SISTER BAY       0413             CALM       N/A
ALGOMA LAKESHORE 0445           50/  9/ 12   N/A
KEWAUNEE LAKESHO 0500   36      40/  4/  6 1015.7S
SHEBOYGAN LAKESH 0500   36 38  340/  7/  7 1017.0F
PORT WASHINGTON  0440   38     270/  1/  2 1017.3S
MILWAUKEE LAKESH 0500   38     190/  2/  3   N/A
KENOSHA   LAKESH 0500   44     190/  3/  4 1016.6S
$$

TC  - TEMPERATURE IN CELSIUS
VSB - VISIBILITY IN STATUTE MILES
WCI - WIND CHILL INDEX
HX  - HEAT INDEX




USA.gov is the U.S. government's official web portal to all federal, state and local government web resources and services.